FW9176 Weather Reports


Display with metric or nautical units.
time (UTC)temp
F
wind
direction
speed
MPH
gust
MPH
rain 1hr
in
rain 24hr
in
rain mn
in
humidity
%
barometer
mb
20260902191605 96 0 0.0 4.0 0.00 0.00 0.00 53 1011.4
20260902190108 96 0 1.0 5.0 0.00 0.00 0.00 51 1011.4
20260902184559 96 259 0.0 6.0 0.00 0.00 0.00 51 1011.7
20260902183104 95 0 1.0 6.0 0.00 0.00 0.00 52 1011.7
20260902181605 95 124 1.0 5.0 0.00 0.00 0.00 52 1011.7
20260902180105 94 141 1.0 4.0 0.00 0.00 0.00 53 1011.9
20260902174608 95 0 0.0 4.0 0.00 0.00 0.00 55 1012.0
20260902173105 94 257 0.0 7.0 0.00 0.00 0.00 56 1012.0
20260902171606 93 273 0.0 4.0 0.00 0.00 0.00 59 1012.0
20260902164601 92 281 0.0 6.0 0.00 0.00 0.00 57 1012.4
20260902163106 91 0 0.0 4.0 0.00 0.00 0.00 57 1012.5
20260902161614 90 92 0.0 5.0 0.00 0.00 0.00 57 1012.6
20260902160059 88 0 0.0 3.0 0.00 0.00 0.00 58 1012.7
20260902154559 88 0 0.0 3.0 0.00 0.00 0.00 61 1012.9
20260902153117 87 275 0.0 3.0 0.00 0.00 0.00 60 1012.8
20260902151556 86 0 0.0 5.0 0.00 0.00 0.00 61 1012.6
20260902150059 86 0 0.0 3.0 0.00 0.00 0.00 61 1012.6
20260902144618 86 0 0.0 3.0 0.00 0.00 0.00 62 1012.6
20260902143059 85 0 0.0 2.0 0.00 0.00 0.00 64 1012.5
20260902141555 84 0 0.0 2.0 0.00 0.00 0.00 65 1012.5
20260902134602 81 0 0.0 3.0 0.00 0.00 0.00 70 1012.6
20260902133102 80 0 0.0 3.0 0.00 0.00 0.00 71 1012.7
20260902131602 80 0 0.0 2.0 0.00 0.00 0.00 72 1012.9
20260902124603 79 0 0.0 2.0 0.00 0.00 0.00 73 1012.9
20260902123104 79 0 0.0 0.0 0.00 0.00 0.00 73 1012.9
20260902121612 78 0 0.0 2.0 0.00 0.00 0.00 73 1012.7
20260902120111 78 0 0.0 0.0 0.00 0.00 0.00 73 1012.6
20260902114616 78 0 0.0 3.0 0.00 0.00 0.00 72 1012.4
20260902113103 78 0 0.0 3.0 0.00 0.00 0.00 72 1012.5
20260902111602 78 0 0.0 0.0 0.00 0.00 0.00 72 1012.5
20260902110059 79 0 0.0 1.0 0.00 0.00 0.00 72 1012.4
20260902104604 79 0 0.0 1.0 0.00 0.00 0.00 71 1012.3
20260902103119 79 0 0.0 0.0 0.00 0.00 0.00 72 1012.3
20260902101558 79 0 0.0 1.0 0.00 0.00 0.00 71 1012.3
20260902100059 79 0 0.0 3.0 0.00 0.00 0.00 72 1012.3
20260902094601 79 0 0.0 2.0 0.00 0.00 0.00 72 1012.3
20260902093110 79 0 0.0 2.0 0.00 0.00 0.00 72 1012.1
20260902091559 79 0 0.0 1.0 0.00 0.00 0.00 73 1012.1
20260902084600 80 0 0.0 0.0 0.00 0.00 0.00 72 1012.0
20260902083055 80 0 0.0 1.0 0.00 0.00 0.00 72 1012.0
20260902081555 80 0 0.0 1.0 0.00 0.00 0.00 72 1012.0
20260902080053 80 0 0.0 0.0 0.00 0.00 0.00 72 1011.9
20260902074613 80 0 0.0 0.0 0.00 0.00 0.00 72 1012.0
20260902073056 81 0 0.0 1.0 0.00 0.00 0.00 72 1011.9
20260902071559 81 169 0.0 4.0 0.00 0.00 0.00 71 1011.9
20260902070103 81 0 0.0 2.0 0.00 0.00 0.00 72 1011.9
20260902064602 81 0 0.0 1.0 0.00 0.00 0.00 71 1012.0
20260902063057 81 0 0.0 1.0 0.00 0.00 0.00 71 1012.0
20260902061559 81 0 0.0 3.0 0.00 0.00 0.00 72 1012.0
20260902060104 81 185 0.0 2.0 0.00 0.00 0.00 72 1011.9
20260902054559 81 0 0.0 3.0 0.00 0.00 0.00 72 1011.9
20260902053106 81 0 0.0 4.0 0.00 0.00 0.00 72 1012.1
20260902051559 82 0 0.0 2.0 0.00 0.00 0.00 72 1012.1
20260902050100 82 0 0.0 1.0 0.00 0.00 0.00 71 1012.2
20260902044603 82 181 0.0 2.0 0.00 0.00 0.00 71 1012.3
20260902043109 83 0 0.0 2.0 0.00 0.00 0.00 70 1012.2
20260902041600 83 167 0.0 3.0 0.00 0.00 0.00 69 1012.2
20260902040105 84 0 0.0 3.0 0.00 0.00 0.00 67 1012.3
20260902034608 84 0 0.0 4.0 0.00 0.00 0.00 66 1012.5
20260902033105 85 0 0.0 2.0 0.00 0.00 0.00 66 1012.5
20260902031600 85 137 0.0 4.0 0.00 0.00 0.00 66 1012.5
20260902030103 85 0 0.0 3.0 0.00 0.00 0.00 66 1012.4
20260902024604 85 154 0.0 1.0 0.00 0.00 0.00 66 1012.3
20260902023104 85 0 0.0 2.0 0.00 0.00 0.00 66 1012.3
20260902021604 85 0 0.0 1.0 0.00 0.00 0.00 66 1012.5
20260902020105 86 0 0.0 0.0 0.00 0.00 0.00 66 1012.4
20260902014556 86 0 0.0 1.0 0.00 0.00 0.00 65 1012.2
20260902013100 87 148 0.0 3.0 0.00 0.00 0.00 64 1011.9
20260902011602 87 171 0.0 3.0 0.00 0.00 0.00 63 1011.6
20260902010059 88 139 0.0 3.0 0.00 0.00 0.00 62 1011.5
20260902004608 89 144 0.0 3.0 0.00 0.00 0.00 61 1011.4
20260902003106 90 177 0.0 3.0 0.00 0.00 0.00 57 1011.4
20260902001607 91 0 0.0 4.0 0.00 0.00 0.00 54 1011.6
20260902000058 93 0 0.0 2.0 0.00 0.00 0.00 51 1011.6
20260901234612 93 0 0.0 3.0 0.00 0.00 0.00 53 1011.6
20260901233105 93 180 0.0 3.0 0.00 0.00 0.00 53 1011.6
20260901231601 93 0 1.0 4.0 0.00 0.00 0.00 54 1011.6
20260901230059 93 0 0.0 3.0 0.00 0.00 0.00 55 1011.6
20260901224604 93 136 0.0 2.0 0.00 0.08 0.00 56 1011.4
20260901223059 93 0 0.0 2.0 0.00 0.08 0.00 55 1011.5
20260901221555 93 150 0.0 2.0 0.00 0.08 0.00 54 1011.5
20260901220118 93 217 0.0 2.0 0.00 0.08 0.00 54 1011.5
20260901214559 93 0 0.0 3.0 0.00 0.08 0.00 53 1011.6
20260901213104 93 0 0.0 4.0 0.00 0.08 0.00 56 1011.6
20260901211554 93 0 0.0 4.0 0.00 0.08 0.00 56 1011.7
20260901210100 94 293 0.0 4.0 0.00 0.08 0.00 56 1011.6
20260901204558 94 311 0.0 3.0 0.00 0.08 0.00 54 1011.8
20260901203103 94 146 0.0 3.0 0.00 0.08 0.00 56 1011.8
20260901201604 93 252 0.0 4.0 0.00 0.08 0.00 54 1011.8
20260901200104 93 124 1.0 4.0 0.00 0.08 0.00 56 1012.1
20260901194607 94 271 0.0 3.0 0.00 0.08 0.00 55 1012.1
20260901193114 94 222 0.0 4.0 0.00 0.08 0.00 54 1012.0